This is the latest recevied weather packets stored in our database for station/object KC1OEK-13. If no packets are shown the sender has not sent any weather packets the latest 1 day(s).
| Time | Temp. | Humidity | Pressure | Rain* | Wind** | Luminosity | Snow |
|---|---|---|---|---|---|---|---|
| 1777988619 | 17.22° C | 74% | 1011.9 hPa | 0 mm | 0.45 m/s, 359° | 511 W/m² | - |
| 1777988315 | 16.67° C | 73% | 1011.7 hPa | 0 mm | 0.89 m/s, 295° | 502 W/m² | - |
| 1777988012 | 16.67° C | 75% | 1011.8 hPa | 0 mm | 0.45 m/s, 271° | 268 W/m² | - |
| 1777987707 | 15.56° C | 78% | 1011.9 hPa | 0 mm | 0.45 m/s, 354° | 527 W/m² | - |
| 1777987405 | 15.56° C | 78% | 1011.9 hPa | 0 mm | 0.89 m/s, 145° | 197 W/m² | - |
| 1777987102 | 15.56° C | 78% | 1012 hPa | 0 mm | 0 m/s | 174 W/m² | - |
| 1777986800 | 15° C | 79% | 1011.7 hPa | 0 mm | 0 m/s | 174 W/m² | - |
| 1777986497 | 15° C | 79% | 1011.8 hPa | 0 mm | 0.89 m/s, 13° | 183 W/m² | - |
| 1777986195 | 15° C | 81% | 1011.9 hPa | 0 mm | 0.45 m/s, 11° | 199 W/m² | - |
| 1777985892 | 14.44° C | 80% | 1012.3 hPa | 0 mm | 0 m/s | 180 W/m² | - |
| 1777985589 | 14.44° C | 79% | 1012.2 hPa | 0 mm | 0.45 m/s, 357° | 118 W/m² | - |
| 1777985286 | 14.44° C | 80% | 1012.6 hPa | 0 mm | 0.89 m/s, 310° | 84 W/m² | - |
| 1777984983 | 13.89° C | 80% | 1012.5 hPa | 0 mm | 0 m/s | 124 W/m² | - |
| 1777984678 | 13.89° C | 80% | 1012.5 hPa | 0 mm | 0.45 m/s, 359° | 95 W/m² | - |
| 1777984375 | 13.89° C | 81% | 1012.6 hPa | 0 mm | 0.45 m/s, 4° | 113 W/m² | - |
| 1777984071 | 13.89° C | 83% | 1012.5 hPa | 0 mm | 0 m/s | 184 W/m² | - |
| 1777983769 | 12.78° C | 85% | 1012.5 hPa | 0 mm | 0 m/s | 166 W/m² | - |
| 1777983465 | 12.22° C | 86% | 1012.8 hPa | 0 mm | 1.34 m/s, 12° | 134 W/m² | - |
| 1777983162 | 12.22° C | 87% | 1012.9 hPa | 0 mm | 0.45 m/s, 282° | 165 W/m² | - |
| 1777982858 | 11.67° C | 89% | 1012.6 hPa | 0 mm | 0 m/s | 131 W/m² | - |
| 1777982555 | 11.11° C | 90% | 1012.6 hPa | 0 mm | 0 m/s | 112 W/m² | - |
| 1777982253 | 10.56° C | 91% | 1012.9 hPa | 0 mm | 0 m/s | 93 W/m² | - |
| 1777981951 | 10.56° C | 93% | 1012.8 hPa | 0 mm | 0 m/s | 113 W/m² | - |
| 1777981648 | 10° C | 95% | 1012.7 hPa | 0 mm | 0 m/s | 100 W/m² | - |
| 1777981344 | 9.44° C | 96% | 1012.7 hPa | 0 mm | 0 m/s | 91 W/m² | - |
* Rain latest hour (hover to see other rain measurements)
** Current wind speed in m/s (hover to see current wind gust speed)